Presure
127 179 189 129 126 169 124 124 121 111 116 108 112 109 112 120 174 123 161 129 146 139 137 136 167 164 150 131 169 346 462 157 432 421 425 394 351 355 345 331 311 298 296 286 162 246 240
154 192 145 198 131 173 207 115 122 117 122 109 111 109 112 118 127 128 139 235 111 180 157 172 167 162 173 132 374 442 463 345 414 401 424 406 347 346 351 355 310 293 287 273 286 257 244
124 163 167 145 201 139 137 180 114 123 112 109 110 107 116 147 137 142 203 146 171 222 148 165 159 144 153 158 423 430 473 408 401 399 417 394 333 344 342 380 302 276 290 271 269 244 253
124 125 182 127 193 205 141 131 174 123 123 104 111 105 103 131 153 148 153 133 136 178 200 171 148 154 150 161 425 425 192 413 385 404 398 379 325 338 332 384 292 277 275 276 274 268 244
203 125 149 170 194 140 138 136 155 140 117 104 104 165 147 142 150 146 168 134 142 170 171 155 156 124 148 140 342 143 424 427 387 407 407 373 326 321 331 373 295 277 291 267 258 273 250
213 197 123 125 122 128 181 134 130 127 126 120 104 147 148 160 139 150 133 149 130 185 170 162 132 145 163 133 277 428 151 431 391 396 395 357 319 312 325 363 307 281 264 266 265 272 255
119 112 152 125 131 126 128 134 132 136 122 130 111 136 131 146 207 147 144 126 227 229 167 153 139 147 146 143 148 513 147 370 364 376 380 347 321 299 323 362 298 259 276 264 262 247 267
202 190 175 121 113 132 130 133 134 129 118 134 135 131 144 137 137 136 202 173 221 181 157 181 129 159 129 160 133 489 159 359 357 397 368 332 314 322 311 338 275 266 255 260 259 269 248
280 222 216 121 123 126 133 132 131 132 135 134 103 127 118 137 150 125 185 183 150 221 147 154 160 150 151 159 188 411 369 170 364 378 358 311 306 319 321 310 275 264 253 259 256 265 257
237 225 169 268 123 129 128 123 135 133 137 133 99 133 133 153 137 139 170 225 145 196 246 134 144 144 147 157 393 385 377 338 362 358 324 310 304 319 312 301 281 276 267 258 278 260 266
256 264 241 235 224 150 125 130 130 125 137 129 132 137 143 139 157 151 157 171 169 138 151 158 141 155 140 415 398 366 126 346 322 358 315 306 310 319 310 286 283 255 254 276 256 279 278
233 228 253 223 240 238 176 171 139 135 133 136 97 137 127 127 131 148 140 125 214 208 156 145 138 148 130 144 192 383 375 349 327 323 306 337 306 311 295 329 269 287 277 267 264 263 264
277 217 245 247 279 207 182 259 127 136 130 133 126 141 134 130 132 134 128 173 150 174 149 141 140 138 150 137 145 392 346 332 334 323 332 309 314 310 314 334 297 274 263 257 256 284 271
248 239 244 270 174 266 264 236 259 132 125 142 141 138 120 134 142 161 125 163 174 221 149 150 145 154 154 153 324 285 374 336 327 328 322 325 320 292 326 347 291 288 274 276 286 276 278
230 250 234 520 241 262 206 211 219 131 135 137 134 125 123 156 156 159 170 122 162 166 152 215 146 153 145 141 163 353 346 365 353 337 330 312 312 293 288 315 290 283 294 280 274 280 280
491 253 246 292 247 256 273 240 188 202 135 135 143 136 143 153 146 143 151 139 177 210 216 143 149 151 141 262 149 346 324 329 318 330 321 252 294 297 301 294 304 281 336 281 271 264 282
286 250 391 254 241 350 225 243 200 243 148 190 143 141 143 134 159 148 160 166 150 197 134 152 148 144 139 140 146 339 317 336 315 306 319 297 301 297 299 292 292 298 281 279 281 282 300
255 302 257 277 160 256 276 191 191 218 141 138 122 140 196 133 139 164 145 140 163 153 177 150 151 139 177 178 295 203 333 315 326 317 309 193 305 296 295 299 297 300 309 260 226 265 278
268 298 391 330 182 315 214 249 202 209 201 209 135 131 153 133 148 150 145 138 223 226 218 152 129 134 147 145 320 193 350 335 318 319 127 301 297 297 292 294 300 309 310 301 356 291 266
490 487 412 263 266 257 195 185 203 207 172 143 193 139 145 156 190 150 128 160 192 186 223 153 137 143 140 124 147 135 252 350 331 312 305 295 295 301 301 297 297 291 306 315 319 330 326
342 319 261 246 259 254 189 200 206 217 175 210 229 131 141 153 136 140 135 145 143 172 172 214 147 145 131 122 146 147 144 320 247 332 306 289 298 308 316 317 294 309 288 290 288 298 296
288 276 265 270 258 186 183 199 214 202 182 140 111 196 151 136 121 133 149 214 133 198 215 143 146 122 138 113 116 120 135 294 236 184 123 312 304 296 284 289 295 293 288 313 283 285 281
286 260 269 264 257 192 206 203 206 236 122 218 135 132 139 153 127 130 157 134 213 166 186 155 161 133 147 144 142 127 204 174 155 104 279 350 320 306 289 281 283 286 287 287 306 289 305
326 276 266 268 253 167 205 210 161 215 199 127 229 154 148 137 133 141 148 149 183 138 165 205 153 125 153 142 121 143 115 158 170 199 159 266 249 346 309 215 286 286 291 310 289 275 283
270 276 279 255 136 206 227 203 198 205 176 217 230 201 139 213 139 126 159 166 157 132 145 200 203 160 139 143 133 136 118 140 116 262 318 218 353 310 351 336 313 291 274 281 290 282 273
279 268 260 240 207 209 191 218 188 202 226 233 223 211 140 209 124 142 152 143 204 150 211 205 144 198 171 151 135 130 119 137 147 160 155 269 123 296 337 328 346 344 323 303 276 269 267
275 244 256 230 182 209 203 193 231 220 177 230 222 180 183 135 133 153 145 195 141 181 209 133 146 198 143 122 131 151 128 156 143 124 178 255 158 277 339 354 267 313 303 319 311 314 311
260 253 208 223 183 198 205 150 197 223 235 235 225 223 203 127 180 206 141 149 200 162 159 124 153 159 143 164 180 148 123 180 112 134 134 224 147 176 120 268 304 311 251 316 302 296 291
265 252 209 224 183 181 185 208 203 214 234 233 227 136 149 119 149 202 127 217 150 146 156 119 199 196 160 137 130 134 113 163 143 137 155 122 240 241 244 230 207 289 285 260 331 309 295
Wind_Speed
49 58 68 47 47 54 41 41 38 28 30 22 26 26 30 38 50 42 43 39 37 36 37 27 61 62 45 34 68 35 14 44 14 32 55 74 71 75 82 98 100 98 95 101 69 103 101
55 80 54 79 50 58 82 39 39 33 35 23 27 24 33 35 33 45 48 82 28 50 37 58 61 54 65 31 34 26 15 11 20 35 44 70 73 74 79 93 99 95 98 100 102 108 102
54 60 63 53 77 49 46 54 37 39 26 25 26 24 36 43 39 39 66 49 61 70 49 57 54 40 49 58 35 22 11 20 20 28 32 69 69 73 76 78 95 93 88 96 101 102 103
57 55 63 52 85 83 47 47 52 39 35 23 27 22 23 37 41 37 41 42 45 41 50 54 39 50 45 63 30 20 43 27 23 34 41 69 70 72 80 70 95 96 95 97 94 94 99
99 58 64 65 71 51 49 48 50 45 29 22 22 44 42 37 38 38 42 45 37 44 46 51 50 22 43 38 31 44 17 30 29 31 52 67 71 71 76 73 96 94 83 93 74 89 97
103 84 56 56 52 51 64 48 46 40 38 33 22 42 42 43 32 38 40 45 30 49 45 54 17 41 63 30 32 19 47 31 34 26 58 68 70 71 76 79 95 92 89 94 90 81 96
56 48 61 57 59 52 50 48 45 46 33 37 28 35 31 39 61 33 34 38 70 69 45 50 26 45 41 42 51 6 42 31 35 35 56 65 67 68 71 78 91 92 88 93 93 99 93
94 81 78 57 39 57 51 48 46 40 32 41 37 29 35 30 28 34 61 39 64 40 50 42 17 61 25 61 30 25 33 30 26 34 60 68 66 65 69 81 94 92 89 92 94 93 100
89 84 86 58 58 53 53 48 44 42 43 41 20 30 28 29 31 36 44 36 35 64 45 49 56 49 52 62 21 41 36 32 22 36 54 60 63 60 65 83 92 94 90 94 90 90 99
85 84 71 69 53 55 47 37 46 43 44 41 13 28 29 38 33 35 35 61 35 42 69 17 35 43 48 60 14 20 33 30 27 35 54 58 59 58 68 83 94 91 98 91 90 95 94
63 63 46 51 62 46 44 47 40 37 44 36 31 33 31 25 33 29 27 30 31 41 45 43 27 50 43 18 12 12 31 40 41 30 49 54 56 58 71 86 91 81 86 90 90 79 91
74 66 61 76 61 52 53 45 49 46 42 41 15 30 25 28 31 21 29 34 51 50 38 34 25 36 24 48 47 35 45 43 37 47 52 36 54 55 68 76 79 92 92 92 90 91 90
88 82 64 71 76 67 63 56 41 47 37 36 22 35 24 27 24 25 30 28 31 19 40 32 21 28 40 38 51 31 25 33 36 36 39 48 45 53 59 63 87 85 82 83 83 91 95
75 78 70 70 65 45 49 47 58 43 31 42 39 31 30 22 20 28 32 14 25 54 36 43 31 37 47 50 25 24 26 20 24 29 34 37 36 44 41 52 69 87 85 85 86 89 87
78 74 74 40 66 39 61 60 47 39 40 39 29 22 30 33 29 22 29 23 16 23 27 43 44 48 30 40 44 8 7 25 22 23 25 22 26 39 46 46 63 71 80 77 76 82 87
66 74 74 49 67 48 54 42 59 44 39 36 40 25 28 25 15 24 26 25 23 38 42 34 43 29 32 23 49 5 8 6 7 7 10 2 30 34 37 46 48 64 63 73 72 73 81
50 74 51 71 75 70 53 41 56 51 28 48 36 35 26 21 26 19 27 20 28 33 16 28 41 40 26 34 37 8 7 5 7 8 12 13 26 30 35 43 45 49 61 65 69 71 81
72 65 64 58 47 54 45 59 58 35 40 37 17 28 34 20 15 23 14 20 14 17 11 21 37 27 39 42 20 50 4 3 10 10 14 8 21 25 29 33 37 40 41 62 36 64 64
36 67 49 61 50 66 50 51 44 55 47 31 23 16 30 21 24 11 13 19 33 34 32 15 18 19 37 30 25 14 1 6 12 10 23 16 17 24 28 31 31 29 32 40 38 54 61
37 32 54 73 59 58 64 48 53 54 41 31 26 22 15 23 23 11 23 16 29 14 32 14 27 30 27 2 27 24 13 5 10 14 18 15 21 23 25 26 27 32 28 27 28 27 39
48 54 72 56 65 60 51 46 52 44 32 33 36 17 15 18 21 17 16 12 17 6 14 36 27 29 23 8 34 19 41 10 6 13 19 17 21 20 20 20 27 24 33 33 36 38 39
58 71 71 71 67 53 41 43 51 49 31 25 18 31 23 18 21 17 12 20 21 20 28 27 22 20 29 18 6 4 24 52 9 16 23 20 22 26 23 27 25 26 31 23 40 40 44
73 67 71 73 70 59 57 57 46 41 27 32 18 17 18 22 22 16 17 17 16 14 20 16 9 25 23 27 31 21 43 32 29 18 13 20 24 25 29 24 31 32 37 37 31 39 37
78 69 76 79 76 47 56 54 39 47 36 27 36 23 21 18 21 15 13 12 15 14 7 24 17 21 9 21 26 42 18 36 24 48 47 31 14 25 30 22 32 35 30 30 37 42 38
72 80 89 78 39 59 58 47 40 47 34 39 37 33 17 27 18 18 17 18 10 16 11 18 30 10 25 18 34 17 11 32 20 58 58 5 21 18 31 30 36 36 33 38 39 42 43
84 79 73 72 69 50 42 54 35 44 41 39 36 36 21 29 22 15 14 12 13 13 16 18 24 30 28 15 23 30 27 36 20 35 44 51 16 31 18 22 35 38 37 44 43 44 47
87 53 78 66 38 63 51 44 43 42 31 38 40 28 27 24 21 16 14 16 11 16 17 20 13 30 26 19 27 34 34 22 17 16 37 59 28 59 18 23 28 23 30 38 39 39 48
79 73 54 78 37 53 50 30 42 44 42 42 40 37 34 20 23 23 19 13 14 15 19 22 18 18 25 15 32 27 19 40 11 28 41 47 27 49 16 61 55 27 30 38 39 42 42
90 80 58 75 29 25 27 53 44 43 39 42 39 23 13 16 20 25 22 19 14 18 16 21 25 28 22 31 28 23 16 39 34 24 30 44 47 50 46 48 46 65 51 40 43 45 46
Wind_Direction
255 288 295 259 260 280 260 263 267 280 283 298 305 304 315 318 308 312 309 296 306 315 299 334 304 313 331 315 329 330 243 319 162 181 187 191 199 198 198 195 201 203 202 208 220 218 218
270 291 266 296 258 280 304 266 267 275 278 297 305 307 315 318 307 309 306 323 301 330 303 300 307 321 321 318 327 340 221 266 180 190 190 190 195 195 195 195 198 201 203 209 209 218 218
254 272 273 263 297 257 260 286 271 271 279 292 301 310 308 303 310 308 317 307 325 331 318 304 320 343 343 341 332 332 212 190 187 193 190 187 193 193 194 189 194 203 201 206 211 216 219
255 254 273 256 294 291 260 258 281 270 276 301 298 308 295 310 303 307 317 319 323 315 327 303 347 327 347 342 324 333 326 181 188 184 182 187 190 193 194 189 194 198 202 205 209 213 218
287 255 267 276 283 258 256 258 268 266 276 299 310 293 297 303 306 308 316 317 334 303 303 320 326 315 340 339 327 341 331 182 187 184 171 179 188 190 193 185 191 195 198 206 207 209 215
281 283 256 256 260 258 282 257 262 270 273 284 306 295 295 306 306 311 313 313 313 319 306 311 330 344 336 339 332 305 337 159 132 156 170 178 187 188 191 184 189 196 203 206 205 206 211
266 271 263 257 254 261 262 258 262 265 277 279 293 294 299 299 310 311 310 326 327 330 303 318 1 347 347 345 341 102 340 151 159 162 168 176 186 188 191 185 186 199 200 206 210 214 204
272 267 269 264 281 258 263 261 261 269 278 277 286 294 296 303 304 305 315 327 327 321 310 350 341 327 337 342 339 127 345 155 165 165 168 179 184 186 185 184 191 196 205 207 210 214 218
270 266 267 269 269 267 262 264 264 270 271 277 312 291 303 302 307 310 316 325 315 328 317 316 319 340 345 344 352 137 144 344 154 151 163 179 184 184 183 183 192 196 207 208 210 214 217
260 267 255 269 273 268 271 275 264 269 270 277 310 287 298 294 299 309 318 319 321 331 337 24 355 340 351 350 109 132 141 133 103 149 170 180 184 183 181 183 191 196 201 210 212 215 220
263 261 247 243 250 275 276 267 270 271 268 281 284 289 294 295 299 304 324 324 335 330 310 313 6 327 360 88 116 130 346 142 148 128 174 185 186 185 184 186 193 204 207 207 214 212 218
254 246 255 244 240 255 266 264 260 264 268 273 260 287 298 290 296 306 314 317 321 324 300 324 23 347 355 1 358 139 129 134 155 167 180 182 186 186 188 191 203 197 203 209 213 219 222
261 248 244 253 270 247 249 261 267 263 270 274 283 287 286 283 290 301 317 324 322 320 307 321 359 23 337 4 352 123 137 152 159 173 176 194 191 189 191 196 198 205 213 215 221 218 221
243 231 234 260 244 249 253 250 252 265 269 267 274 288 288 282 287 309 304 341 333 326 304 304 340 331 336 344 19 7 144 162 180 190 197 194 197 193 198 200 202 204 215 218 217 223 225
244 249 249 247 222 222 234 238 229 256 264 268 278 275 293 287 290 309 307 319 307 319 304 345 317 319 25 16 6 61 59 152 171 188 206 201 195 195 202 203 206 213 214 219 223 224 229
286 250 226 215 218 216 224 223 244 229 262 268 267 284 286 287 294 300 300 294 333 333 329 317 309 345 3 28 356 65 37 97 132 193 182 124 193 199 202 205 207 212 215 221 226 228 230
218 219 216 212 217 202 220 209 240 231 243 246 269 274 285 266 296 292 302 320 325 327 323 300 303 316 360 18 13 60 46 144 153 179 191 196 200 205 208 208 213 214 217 220 224 226 227
214 215 210 194 250 196 202 238 243 224 247 254 246 270 260 261 270 299 296 293 334 308 300 292 299 335 357 3 15 13 131 182 185 189 200 9 207 210 218 218 218 219 220 226 228 231 231
271 219 222 205 230 186 214 208 237 222 231 224 269 258 271 254 277 288 290 291 324 336 337 278 308 342 331 332 9 24 284 183 185 175 342 201 209 214 217 220 221 223 222 224 222 230 234
240 240 179 195 187 182 227 240 226 225 233 241 242 263 260 277 273 279 280 322 315 334 335 273 310 316 336 50 359 19 12 247 188 212 213 231 214 217 221 221 226 230 226 222 222 223 228
207 197 200 208 184 191 234 232 219 199 206 225 228 232 258 272 258 269 275 298 291 297 334 328 304 304 324 299 337 29 356 252 282 216 224 259 222 216 220 218 225 225 226 226 228 226 229
194 190 194 180 177 222 228 225 207 224 206 208 215 238 265 236 262 274 286 311 282 338 323 268 269 318 312 241 196 255 1 33 14 13 19 225 229 229 254 230 222 222 230 232 230 231 234
173 198 177 170 172 213 202 214 206 187 215 212 202 225 236 233 254 270 290 274 324 326 328 249 252 295 292 311 325 322 16 13 352 314 268 229 226 227 250 260 246 241 238 235 228 231 228
165 171 170 170 172 211 218 209 216 204 211 212 218 223 231 236 247 260 275 279 312 282 358 327 242 289 250 311 300 326 314 355 3 12 348 23 352 237 241 284 252 251 240 230 236 242 229
186 169 168 173 210 210 194 209 225 221 199 208 214 221 224 233 241 258 282 294 309 278 279 324 324 281 280 281 307 326 273 346 307 24 34 282 258 263 245 235 238 246 272 254 236 240 244
164 172 176 176 204 198 217 191 213 221 199 201 206 220 226 232 255 259 278 265 306 290 307 319 265 328 328 240 296 312 315 313 355 354 350 29 1 18 273 270 248 251 242 247 259 262 260
167 198 176 179 202 207 206 222 186 198 212 207 211 215 228 233 244 254 261 277 282 300 298 266 280 325 298 290 284 327 298 354 322 296 6 20 1 32 346 270 2 272 268 256 254 246 241
178 174 188 192 198 208 199 201 219 197 202 204 212 216 228 240 242 248 264 275 282 291 309 271 312 305 240 294 335 252 294 349 292 346 316 12 328 343 342 27 25 355 345 268 272 268 263
170 177 184 194 199 211 225 211 198 199 200 207 211 215 231 241 248 249 267 277 276 291 284 271 308 318 326 257 284 287 305 336 316 312 351 308 9 10 12 0 5 19 11 351 268 269 267